Torna al catalogo

CZ-6A DEB

AttivoPO
NORAD 60800·DEBRIS·🇨🇳 China

Lanciato Aug 6, 2024 da Taiyuan Satellite Launch Center

Loading…

Prossimi Passaggi (prossime 24 ore)

TLE

AggiornatoSource: Space-Track

Epoca: Sep 14, 2026, 10:49 UTC

1 60800U 24140GB  26257.45102416  .00000158  00000-0  76314-4 0  9999
2 60800  88.9971 265.8150 0073406 277.1904  82.0941 14.12685185107783

Traccia CZ-6A DEB in tempo reale con AllMySat

Download on the App Store